Find Starlink 5970

NORAD ID: 56450 Int'l Des: 2023-064 Owner: SPXS Country: US Constellation: starlink operational
LEOCIRCULAR

当前视图

正在加载3D地球...

About Starlink 5970

Starlink 5970 (NORAD 56450) is a starlink constellation satellite (v1.5) launched May 10, 2023 by SPXS of US. It operates in LEO, CIRCULAR orbit with a mass of 305.00 kg.

即将过境

Passes for default location (London). Set your location on the main map for personalized predictions.

高度历史

Loading altitude history...

两行轨道根数

1 56450U 23064C 26263.48668685 .00000343 00000-0 36546-4 0 9993
2 56450 70.0007 13.3511 0003069 270.2716 89.8091 14.98332544184420
Epoch: Sep 20, 2026 • Age: 10 hours

当前状态

高度 580.9 km
远地点 / 近地点 N/A
速度 7.57 km/s
星下点 48.92°N, 74.11°E
发射日期 May 10, 2023
运行时间 3.3 years
类型 internet

技术详情

分类 Payload
质量 305.00 kg
干质量 290.00 kg
长度 0.20 m
跨度 9.00 m
形状 ? Box + pan
制造商 SPXS
平台类型 Starlink
阶段状态 In Orbit
所有者/国家 SPXS/US

Most Searched